Regional Weather Roundup
Issued by NWS

Home | Current Version | Previous Version | Text Only | Print | Product List | Glossary Off
Versions: 1 2 3 4 5 6 7 8 9 10 11 12 13 14 15 16 17 18 19 20 21 22 23 24 25 26 27 28 29 30 31 32 33 34 35 36 37 38 39 40 41 42 43 44 45 46 47 48 49 50

000
ASUS43 KMPX 301201
RWRMN
WEATHER ROUNDUP FOR MINNESOTA
NATIONAL WEATHER SERVICE TWIN CITIES/CHANHASSEN MN
700 AM CDT SAT JUL 30 2016


NOTE: "FAIR" INDICATES FEW OR NO CLOUDS BELOW 12,000 FEET WITH NO
SIGNIFICANT WEATHER AND/OR OBSTRUCTIONS TO VISIBILITY. N/A MEANS
CURRENT SKY AND/OR WEATHER CONDITIONS ARE NOT AVAILABLE.

MNZ060>063-068>070-301300-
   Twin Cities Metro

CITY           SKY/WX    TMP DP  RH WIND       PRES   REMARKS
TWIN CITIES    MOCLDY    67  60  78 SE6       30.04R
6HR MIN TEMP:  67; 6HR MAX TEMP:  71;

ST PAUL        CLOUDY    67  62  84 SE3       30.04R
CRYSTAL        CLOUDY    62  57  83 CALM      30.03R
LAKEVILLE      CLOUDY    63  63 100 CALM      30.04R
EDEN PRAIRIE   CLOUDY    66  59  78 CALM      30.03R
6HR MIN TEMP:  63; 6HR MAX TEMP:  66;

LAKEVILLE      CLOUDY    63  63 100 CALM      30.04R
SOUTH ST PAUL  CLOUDY    65  60  82 CALM      30.04R
LAKE ELMO      FAIR      61  61 100 CALM      30.05R
$$
MNZ001>005-007-008-013>017-022>024-027-028-301300-
   Northwest Minnesota

CITY           SKY/WX    TMP DP  RH WIND       PRES   REMARKS
BEMIDJI        MOCLDY    60  57  89 SE3       30.03S
HALLOCK        PTCLDY    61  57  88 S3        29.95S
ROSEAU         CLEAR     57  52  82 SE5       29.98S
WARROAD        CLEAR     57  54  88 S3        30.00R
THIEF RVR FALL CLOUDY    62  60  93 S7        30.00S
CROOKSTON      LGT RAIN  64  63  94 CALM      29.99R
FOSSTON        CLOUDY    63  61  94 SW5       30.03R
DETROIT LAKES  CLOUDY    64  59  82 S6        30.03R
MOORHEAD       PTCLDY    64  61  88 SE7       29.99S
PARK RAPIDS    CLOUDY    61  56  83 SE5       30.04R
MAHNOMEN       RAIN      64  61  91 S3        30.01R
$$
MNZ006-009>011-018-025>026-301300-
   North Central Minnesota

CITY           SKY/WX    TMP DP  RH WIND       PRES   REMARKS
BAUDETTE       CLEAR     58  56  93 S3        30.01R
FLAG ISLAND    CLEAR     66  61  82 CALM      29.97R
INTL FALLS     MOSUNNY   56  52  86 SE3       30.04R
6HR MIN TEMP:  54; 6HR MAX TEMP:  63;

WASKISH        CLEAR     61  55  82 SE3       30.02S FOG
BIG FORK       MOSUNNY   55  54  94 CALM      30.05S
LONGVILLE      PTCLDY    57  55  94 CALM      30.05R
GRAND RAPIDS   CLOUDY    54  52  93 SE3       30.08S
CRANE LAKE     CLOUDY    48  46  93 CALM      30.08R
ORR            CLOUDY    54  50  87 CALM      30.05S
COOK           CLOUDY    50  48  93 CALM      30.07S
WALKER         FAIR      60  55  85 SE5       30.04R
$$
MNZ012-019>021-037-301300-
   Northeast Minnesota

CITY           SKY/WX    TMP DP  RH WIND       PRES   REMARKS
DULUTH         MOSUNNY   57  54  89 CALM      30.07S
6HR MIN TEMP:  50; 6HR MAX TEMP:  57;

ELY            CLOUDY    48  48 100 CALM      30.08S
HIBBING        CLOUDY    46  46 100 CALM      30.07S
EVELETH        CLOUDY    47  47  97 CALM      30.09S
DULUTH HARBOR  CLOUDY    57  57 100 CALM      30.07S
TWO HARBORS    CLOUDY    55  52  88 N3        30.06S
SILVER BAY     MOSUNNY   52  48  87 CALM      30.07R
GRAND MARAIS     N/A     62  52  69 NE6       30.08R
G MARAIS ARPRT SUNNY     52  45  76 N3        30.11R
$$
MNZ029>031-032-039>041-046>048-054>057-064-301300-
   West Central Minnesota

CITY           SKY/WX    TMP DP  RH WIND       PRES   REMARKS
FERGUS FALLS   CLOUDY    64  61  88 S5        30.03R
WHEATON        CLOUDY    63  63 100 CALM      30.02S
MORRIS         CLEAR     59  57  94 SE3       30.02R
ALEXANDRIA     CLEAR     60  56  86 MISG      30.05S
ELBOW LAKE     MOCLDY    62  59  89 E6        30.03S
GLENWOOD         N/A     61  55  82 CALM      30.04R
APPLETON       CLEAR     61  55  82 CALM      30.02R
BENSON         CLEAR     55  54  94 CALM      30.03R
ORTONVILLE     CLOUDY    61  55  82 SE3       30.01S
MADISON        CLEAR     55  54  94 CALM      30.02R
WILLMAR        FAIR      57  55  94 CALM      30.05R
$$
MNZ033>034-036-042>043-049>051-058-059-301300-
   Central Minnesota

CITY           SKY/WX    TMP DP  RH WIND       PRES   REMARKS
ST CLOUD       CLEAR     55  55 100 CALM      30.04S
6HR MIN TEMP:  51; 6HR MAX TEMP:  60;

SAUK CENTRE    FAIR      55  54  96 CALM      30.05R
PAYNESVILLE    CLEAR     56  57 100 CALM      30.05R
AITKIN         PTCLDY    55  52  88 CALM      30.04F
PINE RIVER     PTCLDY    57  57 100 CALM      30.08S
BRAINERD       CLEAR     58  56  93 CALM      30.05S
STAPLES        CLEAR     55  54  94 CALM      30.04S
LONG PRAIRIE   FAIR      55  55 100 CALM      30.05S
LITTLE FALLS   CLEAR     54  52  94 CALM      30.05R
LITCHFIELD     CLEAR     61  59  94 CALM      30.05R
BUFFALO        PTCLDY    60  57  88 CALM      30.05R
MAPLE LAKE     CLEAR     57  56  97 CALM      30.05R
HUTCHINSON       N/A     56  56 100 CALM      30.05R FOG
$$
MNZ037-044-045-052-053-301300-
   East Central Minnesota

CITY           SKY/WX    TMP DP  RH WIND       PRES   REMARKS
PRINCETON        N/A     57  55  94 CALM      30.05R
MORA           MOCLDY    54  52  94 CALM      30.07S
CAMBRIDGE      CLOUDY    63  55  77 CALM      30.03S
RUSH CITY      MOCLDY    59  56  91 NE5       30.05R
MOOSE LAKE     FOG       52  52 100 CALM      30.05S VSB 1/4
HINCKLEY       FAIR      55  54  94 CALM      30.06S
CLOQUET        CLOUDY    50  48  93 NW3       30.07S
MCGREGOR       CLEAR     52  50  93 CALM      30.06F
$$
MNZ071>073-080-081-089-090-097-098-301300-
   Southwest Minnesota

CITY           SKY/WX    TMP DP  RH WIND       PRES   REMARKS
MONTEVIDEO     PTCLDY    59  57  94 S3        30.04S
GRANITE FALLS  CLEAR     56  55  96 CALM      30.05R
CANBY          CLEAR     58  55  91 CALM      30.03S
MARSHALL       PTCLDY    59  55  87 CALM      30.03S
REDWOOD FALLS  CLEAR     56  54  93 CALM      30.03S
OLIVIA         CLEAR     55  54  94 CALM      30.03S
PIPESTONE      CLEAR     57  52  82 CALM      30.04S
WINDOM         PTCLDY    54  52  94 CALM      30.04S
WORTHINGTON    CLEAR     52  50  93 CALM      30.05S
JACKSON        PTCLDY    54  52  94 CALM      30.04S
TRACY          CLOUDY    62  56  82 SW3       30.04S
SLAYTON        CLEAR     53  51  91 CALM      30.05S
$$
MNZ065>067-074>077-082>085-091>093-301300-
   South Central Minnesota

CITY           SKY/WX    TMP DP  RH WIND       PRES   REMARKS
MANKATO        CLEAR     59  52  77 CALM      30.04R
NEW ULM        CLEAR     55  54  94 CALM      30.04R
ST JAMES       CLEAR     50  48  93 CALM      30.04S
FAIRMONT       PTCLDY    57  48  72 CALM      30.03R
GLENCOE        CLEAR     56  56  99 CALM      30.03S
FARIBAULT      CLOUDY    63  63 100 CALM      30.04S
OWATONNA       CLOUDY    64  61  88 CALM      30.04R
WASECA         CLOUDY    63  59  88 CALM      30.05R
ALBERT LEA     PTCLDY    63  61  94 CALM      30.04R
$$
MNZ078>079-086>088-094>096-301300-
   Southeast Minnesota

CITY           SKY/WX    TMP DP  RH WIND       PRES   REMARKS
ROCHESTER      CLOUDY    65  64  97 E5        30.05R
6HR MIN TEMP:  63; 6HR MAX TEMP:  66;

RED WING       CLOUDY    64  63  94 CALM      30.03R
STANTON        CLOUDY    63  61  94 CALM      30.03R
DODGE CENTER   CLOUDY    63  61  94 E3        30.05R FOG
WINONA         CLOUDY    70  64  83 CALM      30.03S
AUSTIN         PTCLDY    63  61  94 CALM      30.03S FOG
PRESTON        CLOUDY    63  62  96 NE3       30.05R FOG
$$
ABBREVIATIONS USED IN REMARKS
   TC - TEMPERATURES IN CELSIUS
  WCI - WIND CHILL INDEX
   HX - HEAT INDEX
  VSB - VISIBILITY
$$




USA.gov is the U.S. government's official web portal to all federal, state and local government web resources and services.